Regional Weather Roundup
Issued by NWS Sterling, VA

Home | Current Version | Previous Version | Text Only | Print | Product List | Glossary Off
Versions: 1 2 3 4 5 6 7 8 9 10 11 12 13 14 15 16 17 18 19 20 21 22 23 24 25 26 27 28 29 30 31 32 33 34 35 36 37 38 39 40 41 42 43 44 45 46 47 48 49 50

000
ASUS41 KLWX 230710
RWRLWX

REGIONAL WEATHER ROUNDUP
NATIONAL WEATHER SERVICE BALTIMORE MD/WASHINGTON DC
300 AM EDT THU MAR 23 2017

Note: "FAIR" indicates few or no clouds below 12,000 feet
with no significant weather and/or obstructions to visibility.
 TC=TEMPERATURE CELSIUS

 * =Non NWS site. Station does not report precipitation (e.g. rain,
    snow, etc.), thunder, or fog.

DCZ001-MDZ009-015-VAZ040>042-051-053>054-230800-
WASHINGTON METRO

CITY           SKY/WX    TMP DP  RH WIND       PRES   REMARKS
WASHINGTON NAT CLEAR     34   9  35 NE10      30.53R WCI  26
DULLES         PTCLDY    29   9  43 N6        30.50R
ANDREWS AFB    CLEAR     27   7  43 N7        30.50R
FT BELVOIR     CLEAR     30   6  36 CALM      30.52R
QUANTICO       PTCLDY    35   8  32 NE7       30.54R
COLLEGE PARK*  CLEAR     28   9  43 CALM      30.52R
LEESBURG*      CLEAR     32  10  40 N6        30.52R
MANASSAS*      CLOUDY    28  11  48 NE3       30.53R
GAITHERSBURG*  CLEAR     25   7  46 CALM      30.54R

$$

MDZ006>007-011-014-230800-
BALTIMORE METRO

CITY           SKY/WX    TMP DP  RH WIND       PRES   REMARKS
BWI AIRPORT    CLEAR     29   5  36 E5        30.52R
MD SCIENCE CTR   N/A     32   3  29 MISG      30.51R
MARTIN STATE   CLEAR     30   7  37 NW3       30.55R
ANNAPOLIS      CLEAR     34  12  40 N10       30.51R WCI  26
FORT MEADE*    CLEAR     25  10  54 CALM      30.54R

$$

MDZ012-015-019>023-230800-
MARYLAND EASTERN SHORE

CITY           SKY/WX    TMP DP  RH WIND       PRES   REMARKS
OCEAN CITY     CLEAR     31   6  35 N14G23    30.49R WCI  21
SALISBURY      CLEAR     28   6  39 N8        30.49R WCI  20
BAY BRIDGE AP* CLEAR     30   7  37 MISG      30.52R
CAMBRIDGE*     CLEAR     30   5  34 N6        30.51R
EASTON*        CLEAR     29   3  33 NE7       30.55R

$$

MDZ017>025-230800-
SOUTHERN MARYLAND

CITY           SKY/WX    TMP DP  RH WIND       PRES   REMARKS
PATUXENT RIVER PTCLDY    31   9  39 NE12      30.51R WCI  22
ST INIGOES     PTCLDY    33   8  35 NE6       30.51R
LEONARDTOWN*   PTCLDY    32  10  40 CALM      30.53R

$$

MDZ003>005-230800-
NORTH CENTRAL MARYLAND

CITY           SKY/WX    TMP DP  RH WIND       PRES   REMARKS
FREDERICK*     CLEAR     25  21  86 CALM      30.55R
HAGERSTOWN APT CLEAR     28   4  35 N5        30.50R
WESTMINSTER*   CLEAR     27   7  43 NE5       30.48S

$$

MDZ501>502-230800-
WESTERN MARYLAND

CITY           SKY/WX    TMP DP  RH WIND       PRES   REMARKS
OAKLAND*       CLEAR     18   5  57 N5        30.37S
CUMBERLAND*    CLEAR     30  12  47 CALM      30.55R

$$

VAZ025>031-230800-
SHENANDOAH VALLEY

CITY           SKY/WX    TMP DP  RH WIND       PRES   REMARKS
WINCHESTER*    CLEAR     27   9  46 CALM      30.50R
FRONT ROYAL*   PTCLDY    30   9  40 CALM      30.49R
LURAY*         PTCLDY    30  19  64 CALM      30.49R
NEW MARKET*    CLOUDY    25  13  60 CALM      30.48R
STAUNTON*      CLEAR     23  11  61 CALM      30.48S
WAYNESBORO*    CLEAR     25  13  59 S3        30.46R

$$

WVZ021-048>050-054>055-230800-
EASTERN WEST VIRGINIA PANHANDLE

CITY           SKY/WX    TMP DP  RH WIND       PRES   REMARKS
MARTINSBURG    CLEAR     27   6  41 CALM      30.51R
PETERSBURG*    CLOUDY    25  17  72 CALM      30.50S

$$

VAZ036>039-050-230800-
CENTRAL FOOTHILLS

CITY           SKY/WX    TMP DP  RH WIND       PRES   REMARKS
CHARLOTTESVILL PTCLDY    34   8  33 CALM      30.49R
CULPEPER*      CLOUDY    29  13  49 CALM      30.52R
ORANGE*        CLOUDY    30  12  47 N3        30.52R
GORDONSVILLE*  CLOUDY    28  16  59 CALM      30.50R
WARRENTON*     CLOUDY    26  12  57 CALM      30.51R

$$

VAZ055>057-230800-
NORTH AND CENTRAL PIEDMONT

CITY           SKY/WX    TMP DP  RH WIND       PRES   REMARKS
FREDERICKSBRG* PTCLDY    33  13  42 CALM      30.52R
STAFFORD*      CLOUDY    27  12  54 CALM      30.56R

$$

NCZ024-NYZ072-PAZ021-071-VAZ022-071-230800-
OTHER REGIONAL OBSERVATIONS

CITY           SKY/WX    TMP DP  RH WIND       PRES   REMARKS
NEW YORK CITY  CLEAR     23   4  44 VRB3      30.49S
PHILADELPHIA   PTCLDY    25   3  38 N13       30.53S WCI  14
PITTSBURGH     CLEAR     22  10  60 CALM      30.50S
ROANOKE        CLEAR     34  15  46 CALM      30.47R
RICHMOND       CLOUDY    33  13  43 N5        30.50R
RALEIGH        PTCLDY    39  15  37 E9        30.47R

$$

ANZ530>537-230800-
MARINE OBSERVATIONS

STATION/POSITION TIME  TEMP    WIND        PRES
                       AIR SEA DIR/SP/G
                 (UTC) (F)     (DEG/KT/KT) (MB)
THOMAS PT LIGHT  0700   33 43   30/ 16/ 17   N/A
BALT KEY BRIDGE  0648           30/  8/  9 1033.8R
COVE POINT       0648           70/ 15/ 17 1033.8R
LEWISETTA        0648      48   60/  8/ 13 1032.9R
PINEY POINT      0648           70/  7/  8   N/A

$$




USA.gov is the U.S. government's official web portal to all federal, state and local government web resources and services.